Weather History for Moline, IL

Change the Weather History Date:

Saturday, February 22, 2014

  Actual Average Record
Temperature  
Mean Temperature 26 °F 29 °F  
Max Temperature 33 °F 38 °F 66 °F (1922)
Min Temperature 18 °F 21 °F -9 °F (1978)
Degree Days  
Heating Degree Days 39 36  
Month to date heating degree days 1104 860  
Since 1 July heating degree days 5371 4594  
Cooling Degree Days 0 0  
Month to date cooling degree days 0 0  
Year to date cooling degree days 0 0  
Moisture  
Dew Point 13 °F    
Average Humidity 64    
Maximum Humidity 88    
Minimum Humidity 39    
Precipitation  
Precipitation 0.00 in 0.07 in 1.08 in (1981)
Month to date precipitation 2.83 1.16  
Year to date precipitation 4.00 2.65  
Snow  
Snow 0.00 in 0.20 in - ()
Month to date snowfall 21.8 5.6  
Since 1 July snowfall 54.3 25.5  
Snow Depth 2.00 in    
Sea Level Pressure  
Sea Level Pressure 30.05 in    
Wind  
Wind Speed 7 mph (WNW)    
Max Wind Speed 15 mph    
Max Gust Speed 21 mph    
Visibility 10 miles    
Events      
T = Trace of Precipitation, MM = Missing Value Source: NWS Daily Summary

Daily Weather History Graph

Daily Weather History Graph

Search for Another Location

Airport:

Trip Planner

Search our weather history database for the weather conditions in past years. The results will help you decide how hot, cold, wet, or windy it might be!

Date:

Astronomy

Feb. 22, 2014 Rise Set
Actual Time 6:47 AM CST 5:44 PM CST
Civil Twilight 6:19 AM CST 6:12 PM CST
Nautical Twilight 5:47 AM CST 6:44 PM CST
Astronomical Twilight 5:15 AM CST 7:16 PM CST
Moon 12:44 AM CST (2/22) 10:53 AM CST (2/22)
Length of Visible Light 11h 53m
Length of Day
10h 57m
Waning Gibbous, 50% of the Moon is Illuminated
Feb 22
Waning Gibbous
Mar 1
New
Mar 8
First Quarter
Mar 16
Full
Mar 23
Last Quarter

Hourly Weather History & Observations

Time (CST) Temp. Windchill Dew Point Humidity Pressure Visibility Wind Dir Wind Speed Gust Speed Precip Events Conditions
12:52 AM 26.1 °F 20.5 °F 19.9 °F 78% 29.91 in 10.0 mi WSW 4.6 mph - N/A   Partly Cloudy
1:52 AM 24.1 °F 18.2 °F 19.0 °F 81% 29.92 in 10.0 mi West 4.6 mph - N/A   Clear
2:52 AM 23.0 °F 15.8 °F 19.0 °F 85% 29.95 in 10.0 mi WSW 5.8 mph - N/A   Clear
3:52 AM 21.9 °F 17.2 °F 18.0 °F 85% 29.95 in 10.0 mi WSW 3.5 mph - N/A   Clear
4:52 AM 24.1 °F 17.0 °F 18.0 °F 77% 29.96 in 10.0 mi West 5.8 mph - N/A   Scattered Clouds
5:52 AM 25.0 °F - 16.0 °F 69% 29.99 in 10.0 mi Calm Calm - N/A   Mostly Cloudy
6:52 AM 21.0 °F 16.2 °F 16.0 °F 81% 30.01 in 10.0 mi SW 3.5 mph - N/A   Clear
7:52 AM 27.0 °F 21.6 °F 16.0 °F 63% 30.03 in 10.0 mi NNW 4.6 mph - N/A   Mostly Cloudy
8:52 AM 27.0 °F 23.0 °F 15.1 °F 61% 30.04 in 10.0 mi West 3.5 mph - N/A   Mostly Cloudy
9:52 AM 28.0 °F 20.8 °F 12.9 °F 53% 30.07 in 10.0 mi West 6.9 mph - N/A   Overcast
10:52 AM 28.9 °F 20.4 °F 10.0 °F 45% 30.07 in 10.0 mi WNW 9.2 mph - N/A   Partly Cloudy
11:52 AM 30.0 °F 24.1 °F 10.9 °F 45% 30.06 in 10.0 mi WNW 5.8 mph - N/A   Clear
12:52 PM 32.0 °F 26.4 °F 10.9 °F 42% 30.05 in 10.0 mi WNW 5.8 mph - N/A   Clear
1:52 PM 32.0 °F 24.8 °F 14.0 °F 48% 30.04 in 10.0 mi WNW 8.1 mph - N/A   Clear
2:52 PM 30.9 °F 22.8 °F 12.9 °F 47% 30.04 in 10.0 mi NW 9.2 mph - N/A   Clear
3:52 PM 30.0 °F 21.7 °F 15.1 °F 54% 30.04 in 10.0 mi WNW 9.2 mph - N/A   Clear
4:52 PM 28.9 °F 22.8 °F 12.9 °F 51% 30.06 in 10.0 mi WNW 5.8 mph - N/A   Clear
5:52 PM 28.0 °F 20.0 °F 10.0 °F 47% 30.08 in 10.0 mi NW 8.1 mph - N/A   Clear
6:52 PM 27.0 °F 18.7 °F 12.9 °F 56% 30.11 in 10.0 mi NW 8.1 mph - N/A   Clear
7:52 PM 26.1 °F 17.6 °F 12.9 °F 58% 30.12 in 10.0 mi NW 8.1 mph - N/A   Clear
8:52 PM 25.0 °F 14.8 °F 12.0 °F 58% 30.14 in 10.0 mi NW 10.4 mph 18.4 mph N/A   Clear
9:52 PM 21.9 °F 13.4 °F 12.0 °F 66% 30.15 in 10.0 mi NW 6.9 mph - N/A   Clear
10:52 PM 19.9 °F 9.3 °F 9.0 °F 62% 30.14 in 10.0 mi NW 9.2 mph - N/A   Clear
11:52 PM 19.0 °F 8.2 °F 6.1 °F 57% 30.16 in 10.0 mi NNW 9.2 mph 18.4 mph N/A   Clear